Location: Kazanice
(53.5528°N, 19.7258°E)
Time: 04:29:08
(UTC+01:00)

ISS - Pass Details

Date: 30 January 2019
Orbit: 403 x 411 km, 51.6° (Epoch: 20 February)

Event Time Altitude Azimuth Distance (km) Brightness Sun altitude
Rises 17:25:35 0° 246° (WSW) 2,330 2.2 -9.9°
Reaches altitude 10° 17:27:42 10° 241° (WSW) 1,473 0.5 -10.2°
Maximum altitude 17:30:54 48° 165° (SSE) 545 -3.2 -10.7°
Enters shadow 17:33:17 16° 95° (E) 1,159 -2.1 -11.0°
